Weather in Shordur

Russia / Mari El Republic     56°34′19″N   49°06′20″E
temp.,
°C
wind,
m/s
gust,
m/s
humid.,
%
clouds,
%
prec.,
mm/h
press.,
hPa
HPBL,
m
19 september, sun
sun1900:000nw38865 0.0 1024214
03:00−1nw39875 0.0 1024217
06:00−1nw28945 0.0 1025205
09:00+5nnw35635 0.0 1025697
12:00+9nw454898 0.0 10251421
15:00+9nnw4546100 0.0 10241470
18:00+4nnw22669 0.0 102521
21:00+1ne388216 0.0 1027183
20 september, mon
mon2000:00−1ne229099 0.0 102816
03:00−2nne2288100 0.0 102922
06:00−1ne2481100 0.0 1029101
09:00+5ene345298 0.0 1029849
12:00+8e3442100 0.0 10281221
15:00+9ene3442100 0.0 10281198
18:00+4ene2262100 0.0 102823
21:00+2e2770100 0.0 1028120
21 september, tue
tue2100:00+1e2876100 0.0 1028148
03:00+1e3981100 0.0 1028199
06:00+1e31085100 0.0 1028295
09:00+6ese5863100 0.0 1027571
12:00+9ese4648100 0.0 1026999
15:00+10ese4647100 0.0 10251026
18:00+5e386874 0.0 1024166
21:00+4e397394 0.0 1024216
22 september, wed
wed2200:00+4e3107788 0.0 1024232
03:00+3ene4118063 0.0 1023246
06:00+3ene4127846 0.0 1023292
09:00+8e5115445 0.0 1023489
12:00+11e51051100 0.0 1023719
15:00+11ese5115367 0.0 1023712
18:00+8e5116099 0.0 1023404
21:00+9e41260100 0.0 1023415
23 september, thu
thu2300:00+9e41163100 0.0 1023459
03:00+8ese41075100 0.1 1023442
06:00+8ese41092100 0.1 1023385
09:00+9ese41184100 0.1 1023457
12:00+13se5962100 0.0 1023600
15:00+13sse51164100 0.0 1023844
18:00+11se41186100 0.2 1023532
21:00+10sse41192100 0.6 1023562